Stündliche Wetter Abraimovka

Heute, 21 Juni, Montag

Zeit Temperatur Niederschläge Wind Luftdruck Luftfeuchtigkeit
00:00 +20°C° 0 mm 2 m/S 746 mmHg 84%
01:00 +19°C° 0 mm 2 m/S 746 mmHg 84%
02:00 +19°C° 0 mm 2 m/S 746 mmHg 85%
03:00 +19°C° 0 mm 2 m/S 746 mmHg 86%
04:00 +19°C° 0 mm 2 m/S 746 mmHg 88%
05:00 +19°C° 0 mm 2 m/S 746 mmHg 89%
06:00 +20°C° 0 mm 3 m/S 746 mmHg 85%
07:00 +21°C° 0 mm 3 m/S 746 mmHg 80%
08:00 +23°C° 0 mm 4 m/S 746 mmHg 76%
09:00 +25°C° 0 mm 4 m/S 746 mmHg 71%
10:00 +26°C° 0 mm 5 m/S 746 mmHg 66%
11:00 +27°C° 0 mm 5 m/S 746 mmHg 61%
12:00 +28°C° 0 mm 5 m/S 745 mmHg 61%
13:00 +28°C° 0 mm 5 m/S 745 mmHg 62%
14:00 +29°C° 0 mm 5 m/S 745 mmHg 62%
15:00 +29°C° 0 mm 4 m/S 745 mmHg 65%
16:00 +28°C° 0 mm 4 m/S 745 mmHg 68%
17:00 +28°C° 0 mm 4 m/S 745 mmHg 71%
18:00 +27°C° 0 mm 4 m/S 744 mmHg 76%
19:00 +25°C° 0 mm 3 m/S 744 mmHg 81%
20:00 +24°C° 0 mm 3 m/S 744 mmHg 86%
21:00 +22°C° 0 mm 3 m/S 744 mmHg 88%
22:00 +21°C° 0 mm 3 m/S 745 mmHg 90%
23:00 +20°C° 0 mm 4 m/S 745 mmHg 92%

Morgen, 22 Juni, Dienstag

Zeit Temperatur Niederschläge Wind Luftdruck Luftfeuchtigkeit
00:00 +20°C° 0 mm 3 m/S 745 mmHg 93%
01:00 +20°C° 0 mm 3 m/S 745 mmHg 94%
02:00 +19°C° 0 mm 3 m/S 745 mmHg 95%
03:00 +19°C° 0 mm 3 m/S 745 mmHg 95%
04:00 +19°C° 0 mm 3 m/S 745 mmHg 94%
05:00 +20°C° 0 mm 3 m/S 745 mmHg 93%
06:00 +21°C° 0 mm 4 m/S 745 mmHg 87%
07:00 +22°C° 0 mm 4 m/S 745 mmHg 81%
08:00 +25°C° 0 mm 5 m/S 745 mmHg 75%
09:00 +26°C° 0 mm 5 m/S 745 mmHg 70%
10:00 +27°C° 0 mm 5 m/S 745 mmHg 65%
11:00 +29°C° 0 mm 5 m/S 745 mmHg 60%
12:00 +29°C° 0 mm 5 m/S 745 mmHg 58%
13:00 +30°C° 0 mm 5 m/S 745 mmHg 56%
14:00 +30°C° 0 mm 5 m/S 745 mmHg 54%
15:00 +30°C° 0 mm 4 m/S 745 mmHg 58%
16:00 +30°C° 0 mm 4 m/S 745 mmHg 61%
17:00 +30°C° 0 mm 4 m/S 745 mmHg 65%
18:00 +28°C° 0 mm 4 m/S 745 mmHg 71%
19:00 +27°C° 0 mm 3 m/S 745 mmHg 77%
20:00 +25°C° 0 mm 3 m/S 745 mmHg 82%
21:00 +24°C° 0 mm 3 m/S 745 mmHg 85%
22:00 +22°C° 0 mm 3 m/S 746 mmHg 88%
23:00 +21°C° 0 mm 3 m/S 746 mmHg 91%

übermorgen, 23 Juni, Mittwoch

Zeit Temperatur Niederschläge Wind Luftdruck Luftfeuchtigkeit
00:00 +20°C° 0 mm 3 m/S 746 mmHg 92%
01:00 +20°C° 0 mm 2 m/S 746 mmHg 92%
02:00 +19°C° 0 mm 2 m/S 746 mmHg 93%
03:00 +19°C° 0 mm 2 m/S 746 mmHg 93%
04:00 +20°C° 0 mm 2 m/S 746 mmHg 92%
05:00 +20°C° 0 mm 2 m/S 747 mmHg 92%
06:00 +22°C° 0 mm 3 m/S 747 mmHg 87%
07:00 +24°C° 0 mm 3 m/S 747 mmHg 82%
08:00 +26°C° 0 mm 4 m/S 747 mmHg 76%
09:00 +28°C° 0 mm 4 m/S 747 mmHg 72%
10:00 +29°C° 0 mm 4 m/S 747 mmHg 67%
11:00 +30°C° 0 mm 4 m/S 747 mmHg 62%
12:00 +32°C° 0 mm 4 m/S 747 mmHg 59%
13:00 +32°C° 0 mm 4 m/S 747 mmHg 56%
14:00 +33°C° 0 mm 4 m/S 747 mmHg 53%
15:00 +33°C° 0 mm 3 m/S 747 mmHg 57%
16:00 +31°C° 0 mm 3 m/S 747 mmHg 61%
17:00 +31°C° 0 mm 2 m/S 747 mmHg 65%
18:00 +29°C° 0 mm 2 m/S 747 mmHg 69%
19:00 +28°C° 0 mm 2 m/S 747 mmHg 73%
20:00 +26°C° 0 mm 2 m/S 747 mmHg 77%
21:00 +25°C° 0 mm 2 m/S 747 mmHg 78%
22:00 +24°C° 0 mm 2 m/S 747 mmHg 79%
23:00 +23°C° 0 mm 2 m/S 747 mmHg 81%

24 Juni, Donnerstag

Zeit Temperatur Niederschläge Wind Luftdruck Luftfeuchtigkeit
00:00 +23°C° 0 mm 2 m/S 747 mmHg 84%
01:00 +21°C° 0 mm 2 m/S 747 mmHg 86%
02:00 +20°C° 0 mm 2 m/S 747 mmHg 89%
03:00 +21°C° 0 mm 2 m/S 747 mmHg 89%
04:00 +21°C° 0 mm 2 m/S 747 mmHg 89%
05:00 +21°C° 0 mm 2 m/S 747 mmHg 89%
06:00 +24°C° 0 mm 2 m/S 747 mmHg 85%
07:00 +25°C° 0 mm 2 m/S 747 mmHg 81%
08:00 +27°C° 0 mm 2 m/S 747 mmHg 77%
09:00 +28°C° 0 mm 3 m/S 747 mmHg 73%
10:00 +29°C° 0 mm 3 m/S 747 mmHg 68%
11:00 +31°C° 0 mm 3 m/S 747 mmHg 64%
12:00 +31°C° 0 mm 3 m/S 747 mmHg 60%
13:00 +32°C° 0 mm 2 m/S 747 mmHg 56%
14:00 +34°C° 0 mm 2 m/S 747 mmHg 52%
15:00 +32°C° 0 mm 2 m/S 747 mmHg 55%
16:00 +32°C° 0 mm 2 m/S 746 mmHg 58%
17:00 +32°C° 0 mm 2 m/S 746 mmHg 61%
18:00 +30°C° 0 mm 2 m/S 746 mmHg 67%
19:00 +29°C° 0 mm 2 m/S 745 mmHg 73%
20:00 +27°C° 0 mm 2 m/S 745 mmHg 79%
21:00 +26°C° 0 mm 2 m/S 745 mmHg 80%
22:00 +25°C° 0 mm 2 m/S 745 mmHg 81%
23:00 +24°C° 0 mm 2 m/S 746 mmHg 82%

25 Juni, Freitag

Zeit Temperatur Niederschläge Wind Luftdruck Luftfeuchtigkeit
00:00 +23°C° 0.2 mm 2 m/S 745 mmHg 85%
01:00 +23°C° 0.2 mm 1 m/S 745 mmHg 88%
02:00 +22°C° 0.2 mm 1 m/S 745 mmHg 91%
03:00 +22°C° 0 mm 1 m/S 745 mmHg 91%
04:00 +21°C° 0 mm 2 m/S 745 mmHg 90%
05:00 +23°C° 0 mm 2 m/S 745 mmHg 90%
06:00 +24°C° 0 mm 2 m/S 745 mmHg 86%
07:00 +26°C° 0 mm 2 m/S 745 mmHg 82%
08:00 +27°C° 0 mm 2 m/S 745 mmHg 78%
09:00 +28°C° 0 mm 3 m/S 745 mmHg 72%
10:00 +30°C° 0 mm 4 m/S 745 mmHg 67%
11:00 +32°C° 0 mm 4 m/S 744 mmHg 61%
12:00 +32°C° 0 mm 4 m/S 744 mmHg 58%
13:00 +32°C° 0 mm 4 m/S 744 mmHg 55%
14:00 +33°C° 0 mm 4 m/S 744 mmHg 52%
15:00 +32°C° 0 mm 4 m/S 743 mmHg 55%
16:00 +32°C° 0 mm 4 m/S 743 mmHg 58%
17:00 +30°C° 0 mm 4 m/S 742 mmHg 62%
18:00 +29°C° 0 mm 3 m/S 742 mmHg 66%
19:00 +27°C° 0 mm 3 m/S 742 mmHg 71%
20:00 +26°C° 0 mm 2 m/S 742 mmHg 75%
21:00 +25°C° 0 mm 3 m/S 742 mmHg 76%
22:00 +24°C° 0 mm 3 m/S 742 mmHg 76%
23:00 +22°C° 0 mm 3 m/S 742 mmHg 77%

26 Juni, Samstag

Zeit Temperatur Niederschläge Wind Luftdruck Luftfeuchtigkeit
00:00 +21°C° 0 mm 3 m/S 741 mmHg 78%
01:00 +21°C° 0 mm 3 m/S 741 mmHg 79%
02:00 +20°C° 0 mm 3 m/S 741 mmHg 80%
03:00 +20°C° 0 mm 3 m/S 740 mmHg 82%
04:00 +20°C° 0 mm 3 m/S 740 mmHg 84%
05:00 +20°C° 0 mm 3 m/S 740 mmHg 86%
06:00 +22°C° 0 mm 3 m/S 740 mmHg 83%
07:00 +25°C° 0 mm 4 m/S 740 mmHg 79%
08:00 +27°C° 0 mm 5 m/S 740 mmHg 76%
09:00 +28°C° 0 mm 5 m/S 740 mmHg 72%
10:00 +29°C° 0 mm 5 m/S 740 mmHg 68%
11:00 +30°C° 0 mm 5 m/S 740 mmHg 65%
12:00 +30°C° 1.7 mm 5 m/S 739 mmHg 66%
13:00 +30°C° 1.7 mm 5 m/S 739 mmHg 67%
14:00 +29°C° 1.7 mm 5 m/S 739 mmHg 68%
15:00 +28°C° 1.7 mm 4 m/S 738 mmHg 72%
16:00 +27°C° 1.7 mm 4 m/S 738 mmHg 77%
17:00 +26°C° 1.7 mm 3 m/S 737 mmHg 81%
18:00 +25°C° 0.5 mm 3 m/S 737 mmHg 84%
19:00 +24°C° 0.5 mm 3 m/S 738 mmHg 87%
20:00 +22°C° 0.5 mm 3 m/S 738 mmHg 90%
21:00 +21°C° 0 mm 3 m/S 738 mmHg 91%
22:00 +20°C° 0 mm 3 m/S 738 mmHg 93%
23:00 +19°C° 0 mm 3 m/S 738 mmHg 95%
Mehr zeigen

Wir brauchen deine Erlaubnis

Meteoprog und unser Service Anbieter werden persönliche Daten aufbewahren, so wie Cookies, Geräte Bezeichnung oder ähnliche Technologien von deinem Gerät und Prozess, so wie Persönliche Daten Inhalte und Werbungen, genauso wie social Media und den Verkehr zu analysieren.

  • Aufbewahrung und/oder Zugang zu deiner Geräte Informationen.

    Cookies, Geräte Bezeichnung oder andere Informationen, können aufbewahrt oder Zugang zu deinem Gerät erhalten, für den Grund, der oben angegeben wird.

  • Personalisierte Werbung und Inhalte, Messungen, Einblick in das Publikum und Produkt Entwicklung.

    Werbungen und Inhalte können personalisiert werden, basierend auf ein Profil. Mehr Daten können besser personalisierte Werbungen und Inhalte hinzufügen. Werbung und Inhalte können gezeigt und gemessen werden. Einblicke über das Publikum, welche die Werbung gesehen haben und den Inhalt, können abgeleitet werden. So wie Daten können genutzt werden, um es zu verbessern oder die Benutzer Erfahrung zu verbessern das System und die Software.

Wenn du “Ich stimme zu” klickst, erlaubst du uns, die Cookies zu benutzen die Geräte Bezeichnung, den Web oder ähnliche Technologien zu benutzen. Deine Settings, können in deinem Gerät bei deinem Browser geändert werden.

Für den bestimmten Zweck, berechtigten Interessen beruhen darauf, mehr als auf den Inhalt. Du kannst mehr darüber in unseren Privaten und Cookie Politik lesen.